| time (UTC) | temp C | wind direction | speed KPH | gust KPH | rain 1hr cm | rain 24hr cm | rain mn cm | humidity % | barometer mb |
| 20260505100004 | 12 | 344 | 14.5 | 22.5 | 0.00 | 0.00 | 0.00 | 68 | 1014.6 |
| 20260505095403 | 12 | 351 | 12.9 | 20.9 | 0.00 | 0.00 | 0.00 | 67 | 1014.7 |
| 20260505094503 | 12 | 5 | 11.3 | 17.7 | 0.00 | 0.00 | 0.00 | 67 | 1014.7 |
| 20260505093603 | 12 | 5 | 14.5 | 25.7 | 0.00 | 0.00 | 0.00 | 69 | 1014.8 |
| 20260505092918 | 11 | 352 | 12.9 | 20.9 | 0.00 | 0.00 | 0.00 | 68 | 1014.9 |
| 20260505091803 | 11 | 349 | 16.1 | 25.7 | 0.00 | 0.00 | 0.00 | 69 | 1014.9 |
| 20260505090903 | 11 | 344 | 17.7 | 27.4 | 0.00 | 0.00 | 0.00 | 69 | 1014.7 |
| 20260505090003 | 10 | 342 | 17.7 | 25.7 | 0.00 | 0.00 | 0.00 | 70 | 1014.6 |
| 20260505085403 | 10 | 351 | 17.7 | 25.7 | 0.00 | 0.00 | 0.00 | 72 | 1014.6 |
| 20260505084717 | 10 | 348 | 16.1 | 24.1 | 0.00 | 0.00 | 0.00 | 73 | 1014.7 |
| 20260505083603 | 10 | 335 | 16.1 | 25.7 | 0.00 | 0.00 | 0.00 | 73 | 1014.6 |
| 20260505082918 | 10 | 341 | 17.7 | 27.4 | 0.00 | 0.00 | 0.00 | 74 | 1014.7 |
| 20260505082017 | 9 | 331 | 16.1 | 22.5 | 0.00 | 0.00 | 0.00 | 74 | 1014.7 |
| 20260505080903 | 9 | 350 | 17.7 | 25.7 | 0.00 | 0.00 | 0.00 | 77 | 1014.8 |
| 20260505080004 | 9 | 338 | 14.5 | 19.3 | 0.00 | 0.00 | 0.00 | 78 | 1015.0 |
| 20260505075618 | 9 | 339 | 14.5 | 19.3 | 0.00 | 0.00 | 0.00 | 80 | 1015.1 |
| 20260505074503 | 9 | 11 | 12.9 | 19.3 | 0.00 | 0.00 | 0.00 | 81 | 1015.0 |
| 20260505073603 | 8 | 14 | 11.3 | 19.3 | 0.00 | 0.00 | 0.00 | 81 | 1015.0 |
| 20260505072703 | 8 | 354 | 9.7 | 16.1 | 0.00 | 0.00 | 0.00 | 82 | 1015.0 |
| 20260505071803 | 8 | 1 | 8.0 | 12.9 | 0.00 | 0.00 | 0.00 | 84 | 1015.2 |
| 20260505070903 | 8 | 359 | 9.7 | 17.7 | 0.00 | 0.00 | 0.00 | 84 | 1015.2 |
| 20260505070003 | 8 | 349 | 9.7 | 17.7 | 0.00 | 0.00 | 0.00 | 85 | 1015.0 |
| 20260505065403 | 8 | 357 | 8.0 | 14.5 | 0.00 | 0.00 | 0.00 | 85 | 1015.3 |
| 20260505064503 | 8 | 333 | 4.8 | 8.0 | 0.00 | 0.00 | 0.00 | 86 | 1015.2 |
| 20260505063818 | 8 | 333 | 8.0 | 11.3 | 0.00 | 0.00 | 0.00 | 86 | 1015.3 |
| 20260505062703 | 8 | 323 | 8.0 | 9.7 | 0.00 | 0.00 | 0.00 | 87 | 1015.2 |
| 20260505061803 | 8 | 353 | 6.4 | 9.7 | 0.00 | 0.00 | 0.00 | 87 | 1015.2 |
| 20260505060903 | 8 | 329 | 6.4 | 9.7 | 0.00 | 0.00 | 0.00 | 87 | 1015.1 |
| 20260505060003 | 8 | 325 | 6.4 | 9.7 | 0.00 | 0.00 | 0.00 | 87 | 1015.3 |
| 20260505055403 | 8 | 322 | 6.4 | 11.3 | 0.00 | 0.00 | 0.00 | 87 | 1015.3 |
| 20260505054504 | 8 | 330 | 8.0 | 11.3 | 0.00 | 0.00 | 0.00 | 87 | 1015.2 |
| 20260505053603 | 7 | 335 | 6.4 | 11.3 | 0.00 | 0.00 | 0.00 | 87 | 1015.2 |
| 20260505052917 | 7 | 345 | 4.8 | 11.3 | 0.00 | 0.00 | 0.00 | 88 | 1015.1 |
| 20260505051803 | 7 | 332 | 6.4 | 8.0 | 0.00 | 0.00 | 0.00 | 89 | 1015.2 |
| 20260505050903 | 7 | 312 | 6.4 | 9.7 | 0.00 | 0.00 | 0.00 | 89 | 1015.3 |
| 20260505040903 | 7 | 328 | 3.2 | 6.4 | 0.00 | 0.00 | 0.00 | 89 | 1014.9 |
| 20260505040004 | 7 | 357 | 4.8 | 9.7 | 0.00 | 0.00 | 0.00 | 89 | 1014.7 |
| 20260505035403 | 8 | 5 | 3.2 | 4.8 | 0.00 | 0.00 | 0.00 | 89 | 1014.7 |
| 20260505034503 | 8 | 354 | 4.8 | 8.0 | 0.00 | 0.00 | 0.00 | 90 | 1014.8 |
| 20260505033603 | 8 | 354 | 3.2 | 8.0 | 0.00 | 0.00 | 0.00 | 90 | 1014.8 |
| 20260505032703 | 8 | 343 | 6.4 | 9.7 | 0.00 | 0.00 | 0.00 | 90 | 1015.0 |
| 20260505032017 | 8 | 346 | 6.4 | 9.7 | 0.00 | 0.00 | 0.00 | 90 | 1015.1 |
| 20260505030903 | 8 | 354 | 6.4 | 9.7 | 0.00 | 0.00 | 0.00 | 91 | 1015.0 |
| 20260505030218 | 7 | 357 | 4.8 | 9.7 | 0.00 | 0.00 | 0.00 | 92 | 1015.0 |
| 20260505025403 | 7 | 2 | 6.4 | 11.3 | 0.00 | 0.00 | 0.00 | 92 | 1015.1 |
| 20260505024717 | 7 | 5 | 4.8 | 8.0 | 0.00 | 0.00 | 0.00 | 92 | 1015.1 |
| 20260505023603 | 7 | 334 | 3.2 | 4.8 | 0.00 | 0.00 | 0.00 | 92 | 1015.2 |
| 20260505022918 | 7 | 321 | 4.8 | 8.0 | 0.00 | 0.00 | 0.00 | 92 | 1015.0 |
| 20260505021803 | 7 | 315 | 4.8 | 6.4 | 0.00 | 0.00 | 0.00 | 91 | 1015.2 |
| 20260505020903 | 7 | 313 | 3.2 | 6.4 | 0.00 | 0.00 | 0.00 | 91 | 1015.1 |
| 20260505020003 | 7 | 316 | 4.8 | 6.4 | 0.00 | 0.00 | 0.00 | 91 | 1015.2 |
| 20260505015403 | 7 | 324 | 3.2 | 6.4 | 0.00 | 0.00 | 0.00 | 90 | 1015.1 |
| 20260505014503 | 8 | 334 | 1.6 | 4.8 | 0.00 | 0.00 | 0.00 | 90 | 1015.2 |
| 20260505013603 | 8 | 333 | 3.2 | 8.0 | 0.00 | 0.00 | 0.00 | 90 | 1015.3 |
| 20260505012703 | 8 | 16 | 3.2 | 8.0 | 0.00 | 0.00 | 0.00 | 89 | 1015.5 |
| 20260505011803 | 8 | 8 | 3.2 | 6.4 | 0.00 | 0.00 | 0.00 | 89 | 1015.4 |
| 20260505010903 | 8 | 21 | 4.8 | 8.0 | 0.00 | 0.00 | 0.00 | 89 | 1015.3 |
| 20260505010003 | 8 | 10 | 3.2 | 6.4 | 0.00 | 0.00 | 0.00 | 89 | 1015.4 |
| 20260505005403 | 8 | 1 | 1.6 | 4.8 | 0.00 | 0.00 | 0.00 | 90 | 1015.3 |
| 20260505004503 | 8 | 356 | 3.2 | 4.8 | 0.00 | 0.00 | 0.00 | 90 | 1015.6 |
| 20260505003603 | 8 | 344 | 3.2 | 4.8 | 0.00 | 0.00 | 0.00 | 90 | 1015.6 |
| 20260505002703 | 8 | 342 | 3.2 | 6.4 | 0.00 | 0.00 | 0.00 | 90 | 1015.6 |
| 20260505002018 | 8 | 334 | 3.2 | 6.4 | 0.00 | 0.00 | 0.00 | 90 | 1015.7 |
| 20260505000903 | 8 | 310 | 3.2 | 6.4 | 0.00 | 0.00 | 0.00 | 89 | 1015.9 |
| 20260505000004 | 8 | 306 | 3.2 | 4.8 | 0.00 | 0.00 | 0.00 | 89 | 1015.9 |
| 20260504235403 | 8 | 319 | 1.6 | 3.2 | 0.00 | 0.00 | 0.00 | 88 | 1016.0 |
| 20260504234503 | 8 | 19 | 0.0 | 1.6 | 0.00 | 0.00 | 0.00 | 87 | 1016.0 |
| 20260504233817 | 9 | 32 | 1.6 | 6.4 | 0.00 | 0.00 | 0.00 | 87 | 1015.9 |
| 20260504232703 | 9 | 75 | 3.2 | 4.8 | 0.00 | 0.00 | 0.00 | 86 | 1015.8 |
| 20260504231803 | 10 | 82 | 4.8 | 6.4 | 0.00 | 0.00 | 0.00 | 86 | 1015.7 |
| 20260504230903 | 10 | 84 | 3.2 | 6.4 | 0.00 | 0.00 | 0.00 | 86 | 1015.7 |
| 20260504230005 | 10 | 70 | 3.2 | 9.7 | 0.00 | 0.00 | 0.00 | 86 | 1015.7 |
| 20260504225403 | 10 | 81 | 4.8 | 9.7 | 0.00 | 0.00 | 0.00 | 86 | 1015.7 |
| 20260504224503 | 10 | 82 | 6.4 | 9.7 | 0.00 | 0.00 | 0.00 | 86 | 1015.7 |
| 20260504223603 | 10 | 87 | 3.2 | 4.8 | 0.00 | 0.00 | 0.00 | 86 | 1015.8 |
| 20260504222918 | 10 | 81 | 4.8 | 8.0 | 0.00 | 0.00 | 0.00 | 86 | 1015.8 |
| 20260504221803 | 10 | 87 | 6.4 | 9.7 | 0.00 | 0.00 | 0.00 | 86 | 1015.8 |
| 20260504221117 | 10 | 91 | 4.8 | 8.0 | 0.00 | 0.00 | 0.00 | 86 | 1015.9 |
| 20260504220218 | 10 | 79 | 4.8 | 6.4 | 0.00 | 0.00 | 0.00 | 86 | 1015.9 |
| 20260504215618 | 10 | 72 | 4.8 | 6.4 | 0.00 | 0.00 | 0.00 | 85 | 1015.9 |
| 20260504214504 | 10 | 69 | 4.8 | 6.4 | 0.00 | 0.00 | 0.00 | 85 | 1015.8 |
| 20260504213603 | 10 | 66 | 4.8 | 9.7 | 0.00 | 0.00 | 0.00 | 85 | 1015.9 |
| 20260504212703 | 10 | 68 | 4.8 | 8.0 | 0.00 | 0.00 | 0.00 | 84 | 1016.0 |
| 20260504211803 | 10 | 74 | 4.8 | 8.0 | 0.00 | 0.00 | 0.00 | 84 | 1016.0 |
| 20260504210903 | 11 | 82 | 3.2 | 4.8 | 0.00 | 0.00 | 0.00 | 85 | 1016.0 |
| 20260504210004 | 11 | 71 | 3.2 | 6.4 | 0.00 | 0.00 | 0.00 | 85 | 1016.1 |
| 20260504205404 | 11 | 74 | 1.6 | 3.2 | 0.00 | 0.00 | 0.00 | 85 | 1016.1 |
| 20260504204503 | 11 | 85 | 4.8 | 9.7 | 0.00 | 0.00 | 0.00 | 85 | 1016.0 |
| 20260504203818 | 11 | 79 | 4.8 | 9.7 | 0.00 | 0.00 | 0.00 | 85 | 1016.0 |
| 20260504202703 | 11 | 81 | 4.8 | 8.0 | 0.00 | 0.00 | 0.00 | 84 | 1015.9 |
| 20260504193817 | 12 | 81 | 1.6 | 3.2 | 0.00 | 0.00 | 0.00 | 82 | 1015.3 |
| 20260504191803 | 12 | 90 | 3.2 | 4.8 | 0.00 | 0.00 | 0.00 | 80 | 1015.4 |
| 20260504191118 | 12 | 87 | 4.8 | 9.7 | 0.00 | 0.00 | 0.00 | 79 | 1015.4 |
| 20260504190004 | 13 | 87 | 3.2 | 6.4 | 0.00 | 0.00 | 0.00 | 78 | 1015.3 |
| 20260504185617 | 13 | 95 | 3.2 | 6.4 | 0.00 | 0.00 | 0.00 | 78 | 1015.2 |
| 20260504184503 | 13 | 93 | 6.4 | 11.3 | 0.00 | 0.03 | 0.00 | 78 | 1015.1 |
| 20260504183603 | 13 | 89 | 6.4 | 11.3 | 0.00 | 0.05 | 0.00 | 78 | 1015.1 |
| 20260504174504 | 13 | 88 | 8.0 | 12.9 | 0.00 | 0.10 | 0.00 | 77 | 1014.7 |
| 20260504173818 | 13 | 90 | 8.0 | 12.9 | 0.00 | 0.10 | 0.00 | 78 | 1014.7 |
| 20260504172703 | 13 | 87 | 8.0 | 14.5 | 0.00 | 0.10 | 0.00 | 77 | 1014.7 |
| 20260504171803 | 14 | 94 | 6.4 | 12.9 | 0.00 | 0.10 | 0.00 | 78 | 1014.8 |
| 20260504170903 | 13 | 96 | 6.4 | 9.7 | 0.00 | 0.10 | 0.00 | 77 | 1014.8 |
| 20260504150903 | 14 | 70 | 8.0 | 16.1 | 0.00 | 0.15 | 0.00 | 76 | 1015.1 |
| 20260504140903 | 13 | 76 | 6.4 | 9.7 | 0.00 | 0.15 | 0.00 | 79 | 1015.6 |